LATINSAT A

Satellite information

Favourite Embed

Satellite Type and Status

PAYLOADIN ORBIT

Key statistics

Satellite LATINSAT A at a glance.

Uptime

8394

Days in orbit

Revolutions

≈ 14.8

Per day

Orbit

LEO

Low Earth Orbit

Inclination

64.6

Latest

Satellite identification and parameters

Extended collection of information and parameters for LATINSAT A.

Object identification

Identified? True

Debris? False

Object name: LATINSAT A

International designator: 2002-058H

Object number (NORAD): 27612

Object ID (CCSDS): 27612

Country: ARGENTINA (ARGN)

Current information (Y/N): Y

RCS size: SMALL

Orbital parameters

Period: 96.973 minutes

Inclination: 64.5527 deg

SMA: 6991.864 km

Apoapsis: 653.625 km

Periapsis: 573.832 km

RAAN: 182.7974 deg

Eccentricy: 0.0057061

Argument of periapsis: 275.921 deg

Mean anomaly: 83.5395 deg

Mean motion: 14.84955175 rev/day

Mean motion (dot): 0.00001626 rev/day2

B* drag term: 0.00020261 1/REarth

Two-line elements (TLE)

Creation date: Dec. 12, 2025, 7:26 a.m.

Reference frame: TEME

Reference center: EARTH

Epoch: Dec. 11, 2025, 11:21 p.m. UTC

TLE line 0: 0 LATINSAT A

TLE line 1: 1 27612U 02058H 25345.97308295 .00001626 00000-0 20261-3 0 9994

TLE line 2: 2 27612 64.5527 182.7974 0057061 275.9210 83.5395 14.84955175239828

Live tracking on map

Real-time ground track for satellite LATINSAT A.

In-orbit conjunctions

There are no conjunctions computed for LATINSAT A, at the moment. Check back to stay up to date, as we update our databases every day.

Go to all conjunctions

Associated space launch

Technology satellite for OHB-System, Germany.

LATINSAT A was lifted into orbit during the mission ‘Dnepr | AATiS-OSCAR-49’, on board a Dnepr space rocket.

The launch took place on Dec. 20, 2002, 5 p.m. from 109/95.

For more information about the launch, click the button.

Launch to space Dnepr | AATiS-OSCAR-49
Dnepr | AATiS-OSCAR-49

Agency: N/A

Status: Launch Successful

Launch date: Dec. 20, 2002, 5 p.m. UTC

Rocket: Dnepr

Launch pad: 109/95

Location: Baikonur Cosmodrome, Republic of Kazakhstan

...

Latest news about this satellite

There are no fresh news available about this satellite. Check back as we update our databases every day.


Newsletter sign-up

Weekly statistics, charts and insights to help you stay on top of the space industry.